This demonstration page uses our WeatherBlox Daily Observations layout. Learn more.

Left ArrowRight Arrow

36.17497, -115.13722

Hourly Observations for March 19, 2015

Temp ( °F °C ) Dew Point ( °F °C ) Humidity (%) Winds ( mph kmh ) Pressure ( in mb ) Visibility ( mi km ) Precip ( " mm )
12:53 am 00:53 Clear 66 18.9 37 2.8 34 34 NNE 5 7 29.95 1014 10 16 N/A
1:53 am 01:53 Mostly Cloudy 65 18.3 37 2.8 36 36 N N/A 29.96 1014 10 16 N/A
2:53 am 02:53 Partly Cloudy 64 17.8 37 2.8 37 37 N 3 6 29.95 1014 10 16 N/A
3:53 am 03:53 Clear 63 17.2 37 2.8 38 38 N 5 7 29.96 1014 10 16 N/A
4:53 am 04:53 Mostly Cloudy 62 16.7 40 4.4 44 44 NNW 3 6 29.97 1015 10 16 N/A
5:53 am 05:53 Partly Cloudy 61 16.1 42 5.6 50 50 N 8 13 30.00 1016 10 16 N/A
6:53 am 06:53 Sunny 61 16.1 42 5.6 50 50 WNW 5 7 30.01 1016 10 16 N/A
7:53 am 07:53 Sunny 63 17 43 6 49 49 N N/A 30.00 1016 10 16 N/A
8:53 am 08:53 Sunny 65 18.3 34 1.1 32 32 N 8 13 30.06 1018 10 16 N/A
9:53 am 09:53 Sunny 69 20.6 32 undefined 25 25 NNE 5 7 30.06 1018 10 16 N/A
10:53 am 10:53 Sunny 70 21.1 31 -0.6 23 23 ESE 3 6 30.05 1018 10 16 N/A
11:53 am 11:53 Sunny 74 23.3 30 -1.1 20 20 VRB 3 6 30.02 1017 10 16 N/A
12:53 pm 12:53 Sunny 75 23.9 24 -4.4 15 15 E 18 30 30.00 1016 10 16 N/A
1:53 pm 13:53 Sunny 76 24.4 14 -10 9 9 ENE 13 20 29.98 1015 10 16 N/A
2:53 pm 14:53 Sunny 77 25 12 -11.1 8 8 E 15 24 29.95 1014 10 16 N/A
3:53 pm 15:53 Sunny 78 25.6 8 -13.3 7 7 E 15 24 29.94 1014 10 16 N/A
4:53 pm 16:53 Sunny 79 26.1 9 -12.8 7 7 NE 16 26 29.93 1013 10 16 N/A
5:53 pm 17:53 Sunny 78 25.6 3 -16.1 5 5 ENE 13 20 29.93 1014 10 16 N/A
6:53 pm 18:53 Clear 76 24.4 3 -16.1 6 6 ENE 9 15 29.94 1014 10 16 N/A
7:53 pm 19:53 Clear 72 22.2 6 -14.4 7 7 E 9 15 29.97 1015 10 16 N/A
8:53 pm 20:53 Clear 70 21.1 9 -12.8 9 9 W 3 6 30.00 1016 10 16 N/A
9:53 pm 21:53 Clear 68 20 11 -11.7 11 11 N N/A 30.02 1017 10 16 N/A
10:53 pm 22:53 Clear 64 17.8 15 -9.4 15 15 N N/A 30.04 1017 10 16 N/A
11:53 pm 23:53 Clear 63 17.2 16 -8.9 16 16 SSW 6 9 30.05 1018 10 16 N/A

Powered by AerisWeather